Powrót do katalogu

DELTA 1 DEB

AktywnySSO
NORAD 37669·DEBRIS·🇺🇸 United States

Wystrzelony Mar 5, 1978 z Vandenberg Space Force Base

Loading…

Następne Przeloty (najbliższe 24 godziny)

TLE

ŚwieżeSource: Space-Track

Epoka: Sep 14, 2026, 08:08 UTC

1 37669U 78026KG  26257.33924949  .00000045  00000-0  55880-4 0  9998
2 37669  99.1459 290.3279 0011098 222.1553 202.7465 14.05492682282000

Śledź DELTA 1 DEB w czasie rzeczywistym z AllMySat

Download on the App Store